LKLN Weather Reports


time (UTC)temp
C
wind
direction
speed
KPH
gust
KPH
rain 1hr
cm
rain 24hr
cm
rain mn
cm
humidity
%
barometer
mb
20260507115805 15 230 19.3 0.0 0.00 0.00 0.00 58 1012.0
20260507112804 15 230 16.1 0.0 0.00 0.00 0.00 62 1012.0
20260507105804 15 230 16.1 0.0 0.00 0.00 0.00 58 1012.0
20260507102804 13 240 19.3 0.0 0.00 0.00 0.00 62 1012.0
20260507095804 12 230 20.9 0.0 0.00 0.00 0.00 71 1012.0
20260507092804 12 240 14.5 0.0 0.00 0.00 0.00 66 1012.0
20260507085810 12 230 20.9 0.0 0.00 0.00 0.00 66 1012.0
20260507082805 12 230 22.5 0.0 0.00 0.00 0.00 66 1012.0
20260507075804 13 220 22.5 0.0 0.00 0.00 0.00 67 1011.0
20260507072804 12 230 20.9 0.0 0.00 0.00 0.00 76 1011.0
20260507065804 12 230 22.5 0.0 0.00 0.00 0.00 76 1011.0
20260507062804 12 230 19.3 0.0 0.00 0.00 0.00 81 1011.0
20260507055805 11 220 20.9 0.0 0.00 0.00 0.00 87 1010.0
20260507052805 11 230 11.3 0.0 0.00 0.00 0.00 93 1010.0
20260507045903 11 220 12.9 0.0 0.00 0.00 0.00 93 1010.0
20260507044017 11 230 12.9 0.0 0.00 0.00 0.00 93 1010.0
20260507042804 11 230 9.7 0.0 0.00 0.00 0.00 100 1009.0
20260507042604 11 230 9.7 0.0 0.00 0.00 0.00 100 1009.0
20260507035804 11 230 11.3 0.0 0.00 0.00 0.00 93 1009.0
20260507032804 11 250 8.0 0.0 0.00 0.00 0.00 93 1009.0
20260507025903 11 230 12.9 0.0 0.00 0.00 0.00 100 1009.0
20260507022803 11 220 9.7 0.0 0.00 0.00 0.00 93 1009.0
20260507015812 11 210 9.7 0.0 0.00 0.00 0.00 100 1009.0
20260507012804 11 230 9.7 0.0 0.00 0.00 0.00 93 1008.0
20260507005804 11 260 8.0 0.0 0.00 0.00 0.00 93 1008.0
20260507002803 11 260 4.8 0.0 0.00 0.00 0.00 100 1008.0
20260506235804 11 230 11.3 0.0 0.00 0.00 0.00 93 1008.0
20260506232803 12 230 12.9 0.0 0.00 0.00 0.00 93 1008.0
20260506225804 12 220 4.8 0.0 0.00 0.00 0.00 100 1008.0
20260506222804 12 0 3.2 0.0 0.00 0.00 0.00 100 1008.0
20260506215804 12 0 1.6 0.0 0.00 0.00 0.00 100 1008.0
20260506212803 12 260 8.0 0.0 0.00 0.00 0.00 100 1007.0
20260506205804 12 0 3.2 0.0 0.00 0.00 0.00 100 1007.0
20260506202904 12 350 8.0 0.0 0.00 0.00 0.00 100 1007.0
20260506195805 12 310 8.0 0.0 0.00 0.00 0.00 100 1007.0
20260506194704 12 320 4.8 0.0 0.00 0.00 0.00 100 1006.0
20260506193239 12 260 14.5 0.0 0.00 0.00 0.00 100 1006.0
20260506192804 16 230 19.3 0.0 0.00 0.00 0.00 72 1006.0
20260506192319 16 230 19.3 0.0 0.00 0.00 0.00 72 1006.0
20260506191808 16 90 8.0 0.0 0.00 0.00 0.00 67 1006.0
20260506185804 16 0 3.2 0.0 0.00 0.00 0.00 67 1005.0
20260506182804 16 0 3.2 0.0 0.00 0.00 0.00 67 1005.0
20260506175804 17 350 4.8 0.0 0.00 0.00 0.00 63 1004.0
20260506172803 17 340 9.7 0.0 0.00 0.00 0.00 63 1004.0
20260506165903 18 0 4.8 0.0 0.00 0.00 0.00 55 1004.0
20260506162804 18 60 11.3 0.0 0.00 0.00 0.00 52 1004.0
20260506155805 18 70 11.3 0.0 0.00 0.00 0.00 55 1004.0
20260506152804 20 80 12.9 0.0 0.00 0.00 0.00 56 1004.0
20260506145805 18 90 14.5 0.0 0.00 0.00 0.00 55 1005.0
20260506142803 20 90 9.7 0.0 0.00 0.00 0.00 52 1005.0
20260506135804 20 0 9.7 0.0 0.00 0.00 0.00 49 1005.0
20260506132804 21 30 8.0 0.0 0.00 0.00 0.00 46 1005.0
20260506125805 20 360 8.0 0.0 0.00 0.00 0.00 49 1005.0
20260506122804 18 0 8.0 0.0 0.00 0.00 0.00 52 1006.0